Regional Weather Roundup
Issued by NWS Charleston, SC

Current Version | Previous Version | Graphics & Text | Print | Product List | Glossary On
Versions: 1 2 3 4 5 6 7 8 9 10 11 12 13 14 15 16 17 18 19 20 21 22 23 24 25 26 27 28 29 30 31 32 33 34 35 36 37 38 39 40 41 42 43 44 45 46 47 48 49 50
000
ASUS42 KCHS 242210
RWRCHS
REGIONAL WEATHER ROUNDUP
NATIONAL WEATHER SERVICE CHARLESTON SC
500 PM EST WED DEC 24 2014

NOTE: "FAIR" INDICATES FEW OR NO CLOUDS BELOW 12,000 FEET WITH NO
SIGNIFICANT WEATHER AND/OR OBSTRUCTIONS TO VISIBILITY.

NOT ALL STATIONS ARE QUALITY CONTROLLED BY THE NATIONAL
WEATHER SERVICE. USE DATA WITH CAUTION...ESPECIALLY
DEWPOINT OBSERVATIONS.

SCZ027-030-031-034>040-042>050-242300-
...SOUTHEAST SOUTH CAROLINA...

CITY           SKY/WX    TMP DP  RH WIND       PRES   REMARKS
N CHARLESTON   LGT RAIN  66  65  96 S8        29.80F
WATERFRONT PRK   N/A     68 N/A N/A SW9         N/A
MOUNT PLEASANT LGT RAIN  70  68  94 SW10G23   29.80R
PINOPOLIS      NOT AVBL
MONCKS CORNER  LGT RAIN  68  64  88 S6        29.77F
SUMMERVILLE    RAIN      66  66 100 S5        29.78F
BEAUFORT MCAS  LGT RAIN  65  64  97 S9        29.75F FOG
BEAUFORT ARPT  RAIN      64  64 100 S6        29.78S
HILTON HEAD IS HVY RAIN  66  66 100 S5        29.79F VSB 1
WALTERBORO     LGT RAIN  68 N/A N/A S12       29.76F
ALLENDALE      CLOUDY    66  66 100 S7        29.71F

...SOUTHERN MIDLANDS AND PEE DEE...

CITY           SKY/WX    TMP DP  RH WIND       PRES   REMARKS
GEORGETOWN     NOT AVBL
KINGSTREE      NOT AVBL
ORANGEBURG     LGT RAIN  66  63  90 S13       29.71S
BARNWELL       CLOUDY    66  66 100 S7        29.71S
AIKEN          CLOUDY    64  64 100 S9        29.72S
MANNING        CLOUDY    66 N/A N/A S7        29.75S
COLUMBIA       CLOUDY    67  64  90 S13       29.68F
SUMTER         LGT RAIN  64  63  94 S13G18    29.69F
FLORENCE       LGT RAIN  67  63  87 S10       29.73S
MYRTLE BEACH   MOCLDY    70  64  83 S9        29.80F
N MYRTLE BEACH CLOUDY    63  61  93 S5        29.78F

$$

GAZ063-065-086>088-099>101-113>116-118-119-134>141-150-242300-
...SOUTHEAST GEORGIA...

CITY           SKY/WX    TMP DP  RH WIND       PRES   REMARKS
SAVANNAH ARPT  CLOUDY    66  63  90 S13       29.75F
HUNTER AAF     DRIZZLE   65  65 100 S8        29.73F
FORT STEWART   CLOUDY    66  64  94 CALM      29.74R
STATESBORO     CLOUDY    66  66 100 SW6       29.74R
SYLVANIA       CLOUDY    66  66 100 S5        29.72R
CLAXTON        CLOUDY    66  66 100 S6        29.75R

...CSRA...CENTRAL AND FAR SOUTHEAST GEORGIA...

CITY           SKY/WX    TMP DP  RH WIND       PRES   REMARKS
THOMSON        CLOUDY    68  68  98 S5        29.71R
AUGUSTA-BUSH   CLOUDY    66  65  96 S5        29.68S
AUGUSTA-DANIEL CLOUDY    67  65  93 S9        29.69R
SWAINSBORO     CLOUDY   N/A N/A N/A S6        29.72R
VIDALIA        CLOUDY    68  68 100 SW7       29.74R
EASTMAN        FAIR      69  69 100 SW9       29.73S
HAZLEHURST     CLOUDY    69  69  99 SW3       29.74R
ALMA           CLOUDY    68  65  90 SW10      29.75R
WAYCROSS       CLOUDY    72  70  95 SW9G17    29.76R
JESUP          MOCLDY    70  68  94 CALM      29.77R
BAXLEY         CLOUDY    70  66  88 SW6       29.74S
BRUNSWICK      CLOUDY    68  64  88 SW7       29.77R
SAINT SIMONS   CLOUDY    66  64  93 S6        29.76F

$$

SCZ027-028-034-036>038-045-046-048>050-GAZ119-141-242300-
...LAKE AND SUPPLEMENTAL COASTAL OBSERVATIONS...

STATION/POSITION TIME  TEMP    WIND        PRES    WAVE   SWELL
                       AIR SEA DIR/SP/G            HT/PER HT/PER/DIR
                 (UTC) (F)     (DEG/KT/KT) (MB)    (FT/S) (FT/S/D)
UPR LAKE MARION  NOT AVBL
WINYAH BAY       2100   67     270/  7     1008.0F
LAKE MURRAY      2100   60     190/  5/  7 1005.1S
ACE BASIN NERRS  2100   65        CALM     1008.0S
FORT PULASKI     2200   64 56  170/  5/  9 1008.3F
SAPELO ISLAND    2100   65     190/ 10     1008.0F

$$

ANZ835-935-AMZ111-154-330-350-352-354-370-450-454-472-242300-
...C-MAN AND BUOY OBSERVATIONS...

STATION/POSITION TIME  TEMP    WIND        PRES    WAVE   SWELL
                       AIR SEA DIR/SP/G            HT/PER HT/PER/DIR
                 (UTC) (F)     (DEG/KT/KT) (MB)    (FT/S) (FT/S/D)
BUOY 41004       2200   76 73  200/ 17/ 21 1008.2R   9/ 8   5/ 8
BUOY 41008       2200   63 59  190/  8/ 10 1008.8R   5/ 7   5/130/ 7
FOLLY BEACH CMAN NOT AVBL
CAPERS NEARSHORE 2100   63     240/ 10/ 12   N/A
FRIPP NEARSHORE  NOT AVBL


STATION/POSITION TIME  TEMP    WIND        PRES    WAVE   SWELL
                       AIR SEA DIR/SP/G            HT/PER HT/PER/DIR
                 (UTC) (F)     (DEG/KT/KT) (MB)    (FT/S) (FT/S/D)
5E ST. MARYS GA  2200      61                N/A     4/ 6
FRYING PAN BUOY  2100   74 71  200/ 21/ 25 1009.4R  10/ 8   5/190/13
BUOY 41025       2100   76                 1009.5R   8/ 7
CAPE LOOKOUT NC  NOT AVBL
BUOY 41002       2113   74 72  200/ 16/ 17 1014.9F   6/ 6   2/ 80/10
BUOY 41010       2200   77 77  190/ 19/ 21 1012.9F   5/ 6   3/230/ 7
ST AUGUSTINE FL  2200   74     200/  8/  9 1009.2R


$$


USA.gov is the U.S. government's official web portal to all federal, state and local government web resources and services.